Location: Unspecified
(0.0000°N, 0.0000°E)
Time: 22:19:26
(UTC+00:00)

ISS - Visible Passes

Search period start: 31 May 2026 00:00
Search period end: 10 June 2026 00:00
Orbit: 413 x 423 km, 51.6° (Epoch: 31 May)

Date Brightness Start Highest point End Pass type
(mag) Time Alt. Az. Time Alt. Az. Time Alt. Az.
2 Jun -0.8 20:04:55 10° NW 20:05:40 16° NW 20:05:40 16° NW visible
3 Jun -3.4 19:17:04 10° NNW 19:20:09 47° NE 19:20:09 47° NE visible
4 Jun -2.1 18:29:46 10° N 18:32:18 20° NE 18:34:41 11° ESE visible
4 Jun -0.5 20:07:24 10° W 20:07:39 11° WSW 20:07:39 11° WSW visible
5 Jun -2.0 19:18:00 10° WNW 19:20:52 27° SW 19:22:12 20° SSW visible
6 Jun -3.5 18:29:34 10° NW 18:32:51 68° SW 18:36:10 10° SSE visible
8 Jun -2.0 05:17:54 10° S 05:20:53 29° SE 05:23:51 10° ENE visible
8 Jun -1.0 18:31:41 10° W 18:33:21 13° SW 18:35:01 10° SSW visible
9 Jun -1.0 04:31:05 10° SSE 04:32:48 13° SE 04:34:30 10° E visible
